Regional Weather Roundup
Issued by NWS

Home | Current Version | Previous Version | Text Only | Print | Product List | Glossary Off
Versions: 1 2 3 4 5 6 7 8 9 10 11 12 13 14 15 16 17 18 19 20 21 22 23 24 25 26 27 28 29 30 31 32 33 34 35 36 37 38 39 40 41 42 43 44 45 46 47 48 49 50

000
ASUS43 KLOT 271209
RWRIL

ILLINOIS REGIONAL WEATHER ROUNDUP
NATIONAL WEATHER SERVICE CHICAGO/ROMEOVILLE IL
700 AM CDT SUN MAY 27 2018

NOTE: "FAIR" INDICATES FEW OR NO CLOUDS BELOW 12,000 FEET WITH NO
SIGNIFICANT WEATHER AND/OR OBSTRUCTIONS TO VISIBILITY.

* THESE STATIONS ARE NOT UNDER NWS QUALITY CONTROL. THEY ALSO MAY NOT
  REPORT WEATHER SUCH AS PRECIPITATION OR FOG.

ILZ001-002-007-009-015-016-024-271300-
NORTHWEST ILLINOIS

CITY           SKY/WX    TMP DP  RH WIND       PRES   REMARKS
MOLINE         FAIR      71  66  84 E5        29.83R
6HR MIN TEMP:  65; 6HR MAX TEMP:  71;

STERLING*        N/A    N/A N/A N/A MISG        N/A
SAVANNA*       FAIR      69  69  99 CALM      29.84R FOG
$$

ILZ003-004-008-010-011-017-018-271300-
NORTH CENTRAL ILLINOIS

CITY           SKY/WX    TMP DP  RH WIND       PRES   REMARKS
ROCKFORD       FAIR      68  65  90 CALM      29.86R
6HR MIN TEMP:  63; 6HR MAX TEMP:  69;

FREEPORT*      PTSUNNY   70  68  95 CALM      29.87R
ROCHELLE*      FAIR      70  69  95 SW3       29.87R
DE KALB*       FAIR      71  70  95 CALM      29.87R
PERU*          FAIR      73  71  91 CALM      29.87R FOG
$$

ILZ005-006-012>014-019>023-271300-
NORTHEAST ILLINOIS

CITY           SKY/WX    TMP DP  RH WIND       PRES   REMARKS
CHICAGO-OHARE  FAIR      75  67  76 SW3       29.85R
6HR MIN TEMP:  70; 6HR MAX TEMP:  75;

CHICAGO-MIDWAY FAIR      75  67  76 SW3       29.85R
6HR MIN TEMP:  72; 6HR MAX TEMP:  77;

AURORA         FAIR      71  67  87 CALM      29.86R FOG
6HR MIN TEMP:  64; 6HR MAX TEMP:  71;

LANSING*       FAIR      71  67  87 CALM      29.87R
JOLIET*        FAIR      73  71  93 CALM      29.86S
WAUKEGAN       FAIR      73  64  73 VRB3      29.84R
6HR MIN TEMP:  62; 6HR MAX TEMP:  73;

DUPAGE AIRPORT FAIR      71  69  93 CALM      29.86R
6HR MIN TEMP:  64; 6HR MAX TEMP:  71;

KANKAKEE*      FAIR      71  65  81 CALM      29.87S
WHEELING       FAIR      71  65  81 CALM      29.87R
6HR MIN TEMP:  65; 6HR MAX TEMP:  72;

MORRIS*        FAIR      73  67  83 CALM      29.85R
ROMEOVILLE*    FAIR      73  67  82 CALM      29.87R
$$

LMZ740>746-271300-
SOUTHERN LAKE MICHIGAN

STATION/POSITION SKY/WX   TEMP    WIND        PRES    VSBY  WAVE
                          AIR SEA DIR/SP/G                  HT/PER
                          (F)     (DEG/KT/KT) (MB)    (MI)  (FT/S)
SOUTHERN BUOY              55 40  210/  8/  8 1011.0R         0
WILMETTE HARBOR            66 57  250/  2/  2   N/A           0
HARRISON CRIB              76     240/  5/  6   N/A
BURNHAM HARBOR                    270/  3/  8   N/A
CALUMET HARBOR             74     220/  4/  5 1010.4R
BURNS HARBOR               75      CALM  /  1 1011.5R
MICHIGAN CITY              75     180/  7/  8   N/A
MICHIGAN CITY 6N           67 63  160/  2/  4   N/A           0
ST. JOSEPH                 68 63  180/  2/  2 1011.0          0
$$

ILZ025>027-034>036-040-047-049-050-058-095>099-271300-
WEST-CENTRAL ILLINOIS

CITY           SKY/WX    TMP DP  RH WIND       PRES   REMARKS
QUINCY         SUNNY     74  69  85 S5        29.86R
GALESBURG*     FAIR      71  65  83 E5        29.86R
MACOMB*        SUNNY     67  66  96 CALM      29.88R
JACKSONVILLE*  SUNNY     74  69  86 S3        29.86R
PITTSFIELD*    SUNNY     74  72  91 CALM      29.88R
$$

ILZ028>032-037-038-041>044-048-051>054-059>061-271300-
CENTRAL ILLINOIS

CITY           SKY/WX    TMP DP  RH WIND       PRES   REMARKS
PONTIAC        FAIR      74  72  93 CALM      29.88R
BLOOMINGTON    FAIR      75  70  84 SW6       29.88R
DECATUR        FAIR      72  70  93 SW3       29.88R
PEORIA         FAIR      73  70  90 CALM      29.86R
6HR MIN TEMP:  68; 6HR MAX TEMP:  74;

LACON*         FAIR      71  71  98 CALM      29.85R
LINCOLN*       FAIR      73  72  96 CALM      29.87R
SPRINGFIELD    FAIR      75  69  81 CALM      29.87R
6HR MIN TEMP:  71; 6HR MAX TEMP:  78;

TAYLORVILLE    FAIR      72  69  90 S3        29.88R
6HR MIN TEMP:  69; 6HR MAX TEMP:  75;

$$

ILZ033-039-045-046-055>057-062-063-271300-
EAST-CENTRAL ILLINOIS

CITY           SKY/WX    TMP DP  RH WIND       PRES   REMARKS
CHAMPAIGN      FAIR      73  70  90 SW5       29.88R
DANVILLE*      FAIR      73  68  84 CALM      29.86R
RANTOUL*       FAIR      74  72  93 CALM      29.88R
MATTOON        FAIR      74  70  87 SW8       29.87R
PARIS*         FAIR      74  69  85 CALM      29.89R
$$

ILZ079-100>102-271300-
SOUTHWEST ILLINOIS

CITY           SKY/WX    TMP DP  RH WIND       PRES   REMARKS
ALTON          MOSUNNY   73  72  94 SW5       29.88S
BELLEVILLE     SUNNY     74  69  86 CALM        N/A
CAHOKIA*       SUNNY     73  66  78 S3        29.88R
SPARTA*        MOSUNNY   74  73  96 W3        29.91R
$$

ILZ064>066-069>071-074>076-080>082-084>086-088>090-092>094-271300-
SOUTH-CENTRAL ILLINOIS

CITY           SKY/WX    TMP DP  RH WIND       PRES   REMARKS
CARBONDALE     FAIR      71  70  96 SE5       29.89R
6HR MIN TEMP:  68; 6HR MAX TEMP:  72;

CAIRO*         FAIR      73  72  97 CALM      29.90R FOG
EFFINGHAM*     PTSUNNY   73  71  96 CALM      29.91R
MARION         MOSUNNY   70  70 100 CALM      29.91S
MT. VERNON     FAIR      73  71  93 S3        29.89S
CENTRALIA*     CLOUDY    74  72  93 CALM      29.89R
SALEM*         FAIR      75  70  86 S3        29.88S
METROPOLIS*    FAIR      71  70  97 CALM      29.91R FOG
$$

ILZ067-068-072-073-078-083-087-091-271300-
SOUTHEAST ILLINOIS

CITY           SKY/WX    TMP DP  RH WIND       PRES   REMARKS
LAWRENCEVILLE  FAIR      73  68  84 S5        29.89R
FLORA*         FAIR      75  71  87 SW3       29.89R
FAIRFIELD*     FAIR      72  70  93 CALM      29.89R
HARRISBURG*    FAIR      71  71 100 CALM      29.91R FOG
ROBINSON*      FAIR      71  70  95 S3        29.90R
CARMI*         FAIR      72  71  95 S3        29.89S FOG
$$

ABBREVIATIONS USED IN REMARKS
   TC - TEMPERATURE IN CELSIUS
  WCI - WIND CHILL INDEX
   HX - HEAT INDEX
  VSB - VISIBILITY
$$




USA.gov is the U.S. government's official web portal to all federal, state and local government web resources and services.